Location: *
(28.3744°N, 81.5492°W)
Time: 02:44:41
(UTC+00:00)

Meteor PRIRODA - Pass Details

Date: 15 June 2025
Orbit: 353 x 361 km, 97.5° (Epoch: 11 July)

Event Time Altitude Azimuth Distance (km) Brightness Sun altitude
Exits shadow 01:54:36 48° 77° (ENE) 493 3.3 -17.3°
Maximum altitude 01:54:36 48° 77° (ENE) 493 3.3 -17.3°
Drops below altitude 10° 01:57:26 10° 1° (N) 1,376 6.4 -17.8°
Sets 01:59:25 0° 355° (N) 2,227 7.6 -18.1°
